THORAD AGENA D R/B, 4367

Orbit data source: Space-Track

THORAD AGENA D R/B, 4367 is space debris in SSO originally from a launch on Wed, 08 Apr 1970 UTC launched from the Air Force Western Test Range (AFWTR). Debris objects in space refer to the collection of defunct objects orbiting the Earth. Examples of debris include non-operational satellites, rocket bodies, and fragments generated from explosions, collisions, or faulty payload assembly.

Loading next visibility...
Identifier
4367, 1970-025C
Orbit
SSO
Country
Flag of USUS
Related business
Manufacturer
LMSC
Mission
Spacecraft
Bus & Motor
AGENA D, Unknown motor
Mass
600 kg wet, 600 kg dry
Launch date (UTC)
1970-04-08 (56 years ago)
Launch vehicle
Unknown
Launch site
Air Force Western Test Range (AFWTR)
Object type
Payload
Rocket body
Debris
Shape & HBR
Unknown
Radar Cross Section
Large (>1 m²)

Expand to show TLE details & history
Last TLE update: 10 hours ago

TLE from 10 hours ago
0 THORAD AGENA D R/B
1  4367U 70025C   25296.67437854  .00000038  00000-0  12854-3 0  9996
2  4367 100.0009  14.5341 0034971 262.0096 221.0414 13.51503979750974
Epoch: 2025-10-23T16:11Z
TLE epoch observation values (Epoch: 2025-10-23T16:11:06.305Z)
Latitude
55.98088°
Longitude
-65.50749°
Altitude
1,095.633 km
Speed
7.3 km/s
True Right ascension
13h 58m 23s
True Declination
55° 49' 42"
Sunlit
Object was in daylight at epoch
Visualization orbit readout
Latitude
Unknown
Longitude
Unknown
Altitude
Unknown
Speed
Unknown
Apparent Right ascension
Unknown
Apparent Declination
Unknown
Sunlit
N/A
Visualization observer readout
Local Sidereal Time
21:01:34
Azimuth
Unknown
Elevation
Unknown
Doppler factor
Unknown
Orbital elements
Apogee altitude
1,090.071 km
Perigee altitude
1,038.019 km
Semi-major axis
7,442.182 km
Eccentricity
0.0035
Inclination
100.0009°
RAAN
14.5341°
Arg. of periapsis
262.0096°
True anomaly
220.77914°
Mean anomaly
221.0414°
Eccentric anomaly
220.91018°
Mean motion
3.38059 °/min
Orbital period
106.49 mins
BSTAR
0.00012854

Documentation

Showing up to 5 results
|